THORAD AGENA D DEB, 4656

Orbit data source: Space-Track

THORAD AGENA D DEB, 4656 is space debris in SSO originally from a launch on Wed, 08 Apr 1970 UTC launched from the Air Force Western Test Range (AFWTR). Debris objects in space refer to the collection of defunct objects orbiting the Earth. Examples of debris include non-operational satellites, rocket bodies, and fragments generated from explosions, collisions, or faulty payload assembly.

Loading next visibility...
Identifier
4656, 1970-025AQ
Orbit
SSO
Country
Flag of USUS
Related business
Manufacturer
Unknown
Mission
Spacecraft
Bus & Motor
Unknown
Mass
Unknown
Launch date (UTC)
1970-04-08 (56 years ago)
Launch vehicle
Unknown
Launch site
Air Force Western Test Range (AFWTR)
Object type
Payload
Rocket body
Debris
Shape & HBR
Unknown shape, 0.1 m
Radar Cross Section
Medium (>0.1 m² and <1 m²)

Expand to show TLE details & history
Last TLE update: 7 hours ago

TLE from 7 hours ago
0 THORAD AGENA D DEB
1  4656U 70025AQ  26256.14197925  .00000240  00000-0  32825-3 0  9993
2  4656  99.3756 148.2564 0025605  89.0921  80.1763 13.68659950805335
Epoch: 2026-09-13T03:24Z
TLE epoch observation values (Epoch: 2026-09-13T03:24:27.007Z)
Latitude
10.24999°
Longitude
-73.29494°
Altitude
1,003.285 km
Speed
7.352 km/s
True Right ascension
21h 59m 50s
True Declination
10° 11' 31"
Sunlit
Object was in full shadow at epoch
Visualization orbit readout
Latitude
Unknown
Longitude
Unknown
Altitude
Unknown
Speed
Unknown
Apparent Right ascension
Unknown
Apparent Declination
Unknown
Sunlit
N/A
Visualization observer readout
Local Sidereal Time
02:47:47
Azimuth
Unknown
Elevation
Unknown
Doppler factor
Unknown
Orbital elements
Apogee altitude
1,020.542 km
Perigee altitude
982.75 km
Semi-major axis
7,379.783 km
Eccentricity
0.00256
Inclination
99.3756°
RAAN
148.2564°
Arg. of periapsis
89.0921°
True anomaly
80.46557°
Mean anomaly
80.1763°
Eccentric anomaly
80.32092°
Mean motion
3.42356 °/min
Orbital period
105.15 mins
BSTAR
0.00032825
Loading maneuver chart data...
Computing Atmospheric mass density...

Documentation

Showing up to 5 results
|